www.pogodaiklimat.ru
Время
(UTC), дата
03 24.02
06 24.02
09 24.02
12 24.02
15 24.02
18 24.02
21 24.02
00 25.02
03 25.02
06 25.02
09 25.02
12 25.02
15 25.02
18 25.02
21 25.02
00 26.02
03 26.02
06 26.02
09 26.02
12 26.02
15 26.02
18 26.02
21 26.02
00 27.02
03 27.02
06 27.02
09 27.02
12 27.02
15 27.02
18 27.02
21 27.02
00 28.02
03 28.02
06 28.02
09 28.02
12 28.02
15 28.02
18 28.02
21 28.02
00 1.03
03 1.03
06 1.03
09 1.03
12 1.03
15 1.03
18 1.03
21 1.03
00 2.03
03 2.03
06 2.03
09 2.03
12 2.03
15 2.03
18 2.03
21 2.03
00 3.03
Ветер
(напр.,м/с)
Видим. Явления Облачность Т
(С)
Тd
(С)
f
(%)
Тe
(С)
Тes
(С)
Комфортность P
(гПа)
Po
(гПа)
Тmin
(С)
Tmax
(С)
R
(мм)
R24
(мм)
S
(см)
Ю 10-14
{14}
4000 м слаб. снег 10/10 150 м
[Frnb Ns]
-1.6 -3.0 90 -10 -10 тепло 1011.2 983.8
Ю 8-14
{14}
4000 м слаб. снег 10/10 300 м
[Frnb Ns]
-0.2 -3.2 80 -8 -8 тепло 1009.9 982.6
Ю 7-12
{14}
20 км позёмок {снег} 10/10 1000 м
[Sc]
+0.6 -3.2 76 -6 -6 тепло 1008.5 981.3
З 7-12
{16}
20 км в посл. час крупа {ливн. снег} 10/10 300 м
[Cb cap]
-0.2 -2.0 88 -7 -7 тепло 1009.6 982.3 +0.9 2
З 4
{12}
20 км позёмок 10/10 1000 м
[Sc]
-7.2 -9.7 82 -14 -14 по сезону 1014.6 986.5
З 6
{10}
20 км позёмок 10/10 1000 м
[Sc]
-13.1 -16.6 75 -22 -22 по сезону 1018.3 989.5
ЮЗ 4 20 км позёмок 10/0
[As trans]
-15.1 -18.5 75 -23 -23 по сезону 1020.7 991.5
Ю 3 20 км {метель} 6/0
[Ac trans]
-19.1 -24.0 65 -27 -27 по сезону 1022.2 992.6 -19.8 20
ЮЗ 4 20 км ясно -20.9 -25.8 65 -30 -29 очень
холодно
1023.7 993.8
ЮЗ 5 20 км позёмок 10/0
[Ci sp]
-17.1 -22.1 65 -26 -24 холодно 1024.0 994.6
ЮЗ 10-13
{17}
2000 м слаб. ливневой снег {метель} 10/10 600 м
[Cb cap]
-17.5 -20.1 80 -30 -30 очень
холодно
1025.9 996.3
Ю 11-13
{13}
20 км позёмок {ливн. снег} 10/0
[Ci sp]
-18.7 -22.8 70 -32 -32 опасность
обморожения
1027.1 997.3 -17.1 0.2
ЮЗ 7-12
{13}
20 км позёмок 10/0
[Ci sp]
-19.7 -23.0 75 -31 -31 опасность
обморожения
1028.6 998.7
ЮЗ 13-17
{17}
4000 м метель 10/6 600 м
[Cb cap Ci sp]
-21.1 -24.4 75 -37 -37 опасность
обморожения
1030.9 1000.7
Ю 9-13
{17}
20 км позёмок {ливн. снег} 10/0
[As trans]
-22.4 -25.6 75 -36 -36 опасность
обморожения
1032.5 1002.2
ЮЗ 8-12
{16}
20 км позёмок {ливн. снег} 10/0
[Ci sp]
-23.5 -26.8 74 -37 -37 опасность
обморожения
1035.5 1005.1 -23.8 0.0 19
Ю 9 20 км позёмок 10/0
[Ci sp]
-23.8 -27.7 70 -38 -38 опасность
обморожения
1037.6 1006.9 -23.9
Ю 8-12
{15}
20 км позёмок 4/0
[Ci fib]
-21.7 -26.5 65 -35 -34 опасность
обморожения
1038.8 1008.3
Ю 9-13
{15}
4000 м метель 10/8 600 м
[Cb cap Ci fib]
-20.5 -25.4 65 -34 -34 опасность
обморожения
1039.5 1009.3
Ю 8-11
{13}
20 км позёмок 10/0
[Ci sp]
-20.7 -26.4 60 -33 -33 опасность
обморожения
1041.0 1010.5 -19.5
Ю 3
{12}
20 км {метель} ясно -25.7 -29.6 70 -34 -34 опасность
обморожения
1042.4 1011.3
З 3 20 км {метель} ясно -27.1 -30.2 75 -36 -36 опасность
обморожения
1042.2 1011.0
Ю 2 20 км 5/0
[Ci fib]
-30.2 -33.2 75 -38 -38 опасность
обморожения
1041.6 1010.1
ЮЗ 2 20 км 3/0
[Ci fib]
-31.6 -34.5 75 -39 -39 опасность
обморожения
1041.4 1009.7 -31.7 19
ЮЗ 2 20 км ясно -30.3 -33.4 74 -38 -36 опасность
обморожения
1041.7 1010.2
Ю 3 20 км ясно -23.3 -27.3 70 -32 -27 опасность
обморожения
1041.2 1010.5
Ю 4 20 км ясно -18.7 -24.5 60 -27 -25 очень
холодно
1040.0 1009.9
ЮЗ 2 20 км ясно -19.6 -25.4 60 -25 -25 очень
холодно
1039.7 1009.5 -18.5
штиль 0 20 км ясно -23.9 -27.1 75 -24 -24 холодно 1040.6 1009.9
штиль 0 20 км ясно -29.5 -32.0 79 -30 -30 очень
холодно
1040.9 1009.4
С 1 20 км ясно -30.7 -33.0 80 -35 -35 опасность
обморожения
1039.5 1007.9
СВ 1 20 км 10/0
[Ci fib]
-31.9 -34.4 78 -36 -36 опасность
обморожения
1038.3 1006.6 -32.8 19
Ю 7 20 км 10/0
[Ci sp]
-16.6 -20.8 70 -27 -27 очень
холодно
1034.8 1005.1
Ю 10-14
{14}
20 км позёмок 10/0
[Ci sp]
-11.2 -17.4 60 -22 -22 холодно 1032.1 1003.1
Ю 14-18
{18}
10 км позёмок 10/10 600 м
[Sc]
-8.4 -13.7 66 -20 -20 холодно 1028.7 1000.2
Ю 15-17
{21}
2000 м снег {метель} 10/10 180 м
[Frnb Ns]
-8.6 -9.7 92 -21 -21 холодно 1026.4 997.9 -8.4 0.3
Ю 14-19
{20}
500 м сильн. снег {метель} 10/10 100 м
[Frnb Ns]
-7.8 -8.0 98 -20 -20 прохладно 1022.6 994.2
Ю 14-18
{19}
500 м сильн. снег {метель} 10/10 90 м
[Frnb Ns]
-7.5 -8.5 93 -19 -19 по сезону 1019.8 991.5
Ю 16-22
{23}
500 м сильн. снег {метель} 10/10 90 м
[Frnb Ns]
-7.2 -8.1 93 -19 -19 по сезону 1017.1 989.1
Ю 13-13
{20}
500 м сильн. снег {метель} 10/10 90 м
[Frnb Ns]
-6.4 -7.2 94 -18 -18 по сезону 1015.5 987.5 -8.6 4 18
Ю 10-14
{19}
500 м сильн. снег {метель} 10/10 120 м
[Frnb Ns]
-5.8 -5.9 99 -16 -16 по сезону 1015.7 987.8
Ю 10-15
{17}
2000 м снег {метель} 10/10 200 м
[Frnb Ns]
-3.0 -4.3 91 -12 -12 по сезону 1015.2 987.5
Ю 14-19
{19}
500 м сильн. снег {метель} 10/10 90 м
[Frnb Ns]
-1.8 -2.3 96 -12 -12 по сезону 1014.4 986.9
Ю 10-15
{19}
2000 м снег {метель} 10/10 200 м
[Frnb Ns]
-0.1 -0.7 96 -9 -9 по сезону 1013.9 986.6 -0.1 2
Ю 10-13
{15}
20 км позёмок {ливн. снег, снег} 10/10 360 м
[Cb cap]
+0.9 -0.2 92 -7 -7 тепло 1013.8 986.6
ЮЗ 8-12
{14}
20 км слаб. дождь 10/10 300 м
[Frnb Ns]
+0.9 +0.1 94 -7 -7 тепло 1013.0 985.8
ЮЗ 8-11
{12}
20 км слаб. снег {дождь} 10/10 360 м
[Frnb Ns]
-0.5 -2.0 90 -8 -8 тепло 1014.1 986.7
Ю 6
{14}
20 км {снег, дождь} 9/9 600 м
[Sc]
-5.9 -8.2 84 -14 -14 тепло 1017.1 989.1 -6.2 0.6 21
ЮЗ 5 20 км 10/10 600 м
[Sc]
-5.2 -6.6 90 -12 -12 по сезону 1017.7 989.8
ЮЗ 5 20 км 10/10 600 м
[Sc]
-3.8 -5.6 87 -11 -11 по сезону 1017.6 989.9
ЮЗ 6 20 км 10/10 600 м
[Sc]
-3.0 -5.4 83 -10 -10 по сезону 1016.7 989.0
Ю 4 20 км 10/10 600 м
[Sc]
-4.0 -7.0 80 -10 -10 по сезону 1016.7 988.9 -3.0
Ю 3 20 км 10/0
[Ci fib]
-6.3 -7.5 91 -12 -12 по сезону 1017.0 989.0
СВ 2 4000 м дымка ясно -9.8 -10.6 94 -14 -14 по сезону 1016.0 987.5
С 2 20 км 10/10 600 м
[Sc]
-9.4 -10.1 95 -14 -14 по сезону 1014.5 986.1
штиль 0 20 км слаб. снег 10/10 600 м
[Sc]
-8.8 -9.1 98 -9 -9 тепло 1014.6 986.2 -11.0 0.0 21
Местоположение метеостанции Рубцовск (Алтайский край, Россия): широта 51.58 долгота 81.20 высота над уровнем моря 219 м.
В архиве по умолчанию представлена погода в Рубцовске за последнюю неделю. Архивные данные за месяц целиком и за предыдущие месяцы, начиная с января 2011 года, Вы можете получить, выбрав интересующий диапазон дат из раскрывающегося списка и нажав кнопку "Найти!".
*Определитесь, кто Вы:
Внимание! Время в таблицах - всемирное. Для получения местного времени необходимо прибавить поправку, которая равна 7 ч.
Смотрите также архив погоды в соседних городах и на ближайших метеорологических станциях:
Партнеры нашего сайта:      
Пояснения к столбцам:
  • Ветер - указаны скорость ветра в м/с - средняя за 10 мин, порывы в срок и между сроками (в фигурных скобках) и направление, откуда дует ветер: С - северный,
  • СВ - северо-восточный, В - восточный, ЮВ - юго-восточный, Ю - южный, ЮЗ - юго-западный, З - западный, СЗ - северо-западный.
  • Видимость - горизонтальная дальность видимости в метрах или километрах. При видимости от 1 до 10 км при отсутствии осадков обычно наблюдается дымка, при ухудшении видимости до 1 км и менее - туман. В сухую погоду видимость может ухудшаться дымом, пылью или мглою.
  • Явления - указаны атмосферные явления, наблюдавшиеся в срок или в последний час перед сроком; фигурными скобками обозначены явления, наблюдавшиеся между сроками (за 1-3 часа до срока); квадратными скобками обозначены град или гололедные отложения с указанием их диаметра в мм.
  • Облачность - указаны через наклонную черту общая и нижняя облачность в баллах и высота нижней границы облаков в метрах; квадратными скобками обозначены формы облаков: Ci - перистые, Cs - перисто-слоистые, Cc - перисто-кучевые, Ac - высококучевые, As - высокослоистые, Sc - слоисто-кучевые, Ns - слоисто-дождевые, Cu - кучевые, Cb - кучево-дождевые. Подробнее классификацию облаков см. в Атласе облаков (PDF).
  • T - Температура воздуха - температура, измеренная на высоте 2 м над землей.
  • Td - Температура точки росы - температура, при понижении до которой содержащийся в воздухе водяной пар достигнет насыщения.
  • f - Относительная влажность воздуха - влажноcть воздуха, измеренная на высоте 2 м над землей.
  • Te - Эффективная температура - температура, которую ощущает одетый по сезону человек в тени. Характеристика душности погоды. При расчете учитывается влияние влажности воздуха и скорости ветра на теплоощущения человека.
  • Tes - Эффективная температура на солнце - температура, которую ощущает человек, с поправкой на солнечный нагрев. Характеристика знойности погоды. Зависит от высоты солнца над горизонтом, облачности и скорости ветра. Ночью, в пасмурную погоду, а также при ветре 12 м/с и более поправка равна нулю.
  • P - Атмосферное давление - приведенное к уровню моря атмосферное давление.
  • Po - Атмосферное давление - измеренное на уровне метеостанции атмосферное давление.
  • Tmin - Минимальная температура - минимум температуры воздуха на высоте 2 м над землей.
  • Tmax - Максимальная температура - максимум температуры воздуха на высоте 2 м над землей.
  • R - Количество осадков - Количество выпавших осадков за период времени, мм. При наведении курсора мыши на число - период времени, за который выпало указанное количество осадков.
  • R24 - Количество осадков - Количество выпавших осадков за 24 часа, мм.
  • S - Снежный покров - Высота снежного покрова, см. При наведении курсора мыши на число - состояние снежного покрова и степень покрытия местности в баллах.